Stündliche Wetter Holubivka

Heute, 25 Juni, Freitag

Zeit Temperatur Niederschläge Wind Luftdruck Luftfeuchtigkeit
00:00 +25°C° 0 mm 2 m/S 747 mmHg 79%
01:00 +24°C° 0 mm 2 m/S 747 mmHg 81%
02:00 +23°C° 0 mm 2 m/S 747 mmHg 83%
03:00 +23°C° 0 mm 2 m/S 747 mmHg 83%
04:00 +23°C° 0 mm 2 m/S 747 mmHg 84%
05:00 +24°C° 0 mm 2 m/S 747 mmHg 84%
06:00 +25°C° 0 mm 2 m/S 747 mmHg 78%
07:00 +27°C° 0 mm 2 m/S 747 mmHg 73%
08:00 +28°C° 0 mm 2 m/S 747 mmHg 67%
09:00 +29°C° 0 mm 2 m/S 747 mmHg 63%
10:00 +31°C° 0 mm 2 m/S 747 mmHg 59%
11:00 +32°C° 0 mm 2 m/S 747 mmHg 55%
12:00 +32°C° 0 mm 2 m/S 747 mmHg 53%
13:00 +34°C° 0 mm 2 m/S 746 mmHg 51%
14:00 +34°C° 0 mm 2 m/S 746 mmHg 48%
15:00 +34°C° 0 mm 2 m/S 746 mmHg 52%
16:00 +34°C° 0 mm 2 m/S 746 mmHg 56%
17:00 +32°C° 0 mm 2 m/S 746 mmHg 60%
18:00 +30°C° 0 mm 2 m/S 745 mmHg 66%
19:00 +28°C° 0 mm 3 m/S 745 mmHg 71%
20:00 +27°C° 0 mm 3 m/S 745 mmHg 76%
21:00 +26°C° 0.1 mm 2 m/S 745 mmHg 78%
22:00 +25°C° 0.1 mm 2 m/S 745 mmHg 80%
23:00 +25°C° 0.1 mm 1 m/S 745 mmHg 82%

Morgen, 26 Juni, Samstag

Zeit Temperatur Niederschläge Wind Luftdruck Luftfeuchtigkeit
00:00 +24°C° 0.1 mm 2 m/S 745 mmHg 83%
01:00 +24°C° 0.1 mm 2 m/S 745 mmHg 85%
02:00 +23°C° 0.1 mm 2 m/S 745 mmHg 86%
03:00 +24°C° 0 mm 2 m/S 745 mmHg 86%
04:00 +24°C° 0 mm 2 m/S 745 mmHg 87%
05:00 +24°C° 0 mm 2 m/S 745 mmHg 87%
06:00 +25°C° 0 mm 2 m/S 745 mmHg 82%
07:00 +27°C° 0 mm 2 m/S 745 mmHg 76%
08:00 +29°C° 0 mm 2 m/S 745 mmHg 71%
09:00 +30°C° 0.1 mm 2 m/S 745 mmHg 66%
10:00 +31°C° 0.1 mm 3 m/S 745 mmHg 61%
11:00 +33°C° 0.1 mm 3 m/S 744 mmHg 56%
12:00 +33°C° 0 mm 3 m/S 744 mmHg 55%
13:00 +34°C° 0 mm 3 m/S 744 mmHg 53%
14:00 +34°C° 0 mm 3 m/S 744 mmHg 52%
15:00 +33°C° 0.3 mm 3 m/S 744 mmHg 58%
16:00 +32°C° 0.3 mm 4 m/S 743 mmHg 63%
17:00 +30°C° 0.3 mm 4 m/S 743 mmHg 69%
18:00 +28°C° 1.9 mm 3 m/S 743 mmHg 74%
19:00 +26°C° 1.9 mm 3 m/S 743 mmHg 79%
20:00 +24°C° 1.9 mm 2 m/S 743 mmHg 84%
21:00 +24°C° 1.5 mm 2 m/S 743 mmHg 86%
22:00 +24°C° 1.5 mm 2 m/S 743 mmHg 89%
23:00 +23°C° 1.5 mm 2 m/S 743 mmHg 91%

übermorgen, 27 Juni, Sonntag

Zeit Temperatur Niederschläge Wind Luftdruck Luftfeuchtigkeit
00:00 +22°C° 3.1 mm 3 m/S 743 mmHg 92%
01:00 +21°C° 3.1 mm 4 m/S 743 mmHg 94%
02:00 +20°C° 3.1 mm 5 m/S 743 mmHg 95%
03:00 +20°C° 0.4 mm 5 m/S 743 mmHg 95%
04:00 +20°C° 0.4 mm 5 m/S 743 mmHg 95%
05:00 +21°C° 0.4 mm 5 m/S 743 mmHg 95%
06:00 +22°C° 0 mm 4 m/S 743 mmHg 90%
07:00 +25°C° 0 mm 4 m/S 743 mmHg 85%
08:00 +26°C° 0 mm 4 m/S 742 mmHg 80%
09:00 +27°C° 0.2 mm 4 m/S 742 mmHg 76%
10:00 +28°C° 0.2 mm 4 m/S 742 mmHg 72%
11:00 +29°C° 0.2 mm 4 m/S 742 mmHg 67%
12:00 +29°C° 0.6 mm 4 m/S 742 mmHg 68%
13:00 +29°C° 0.6 mm 5 m/S 743 mmHg 68%
14:00 +29°C° 0.6 mm 5 m/S 743 mmHg 68%
15:00 +28°C° 1.4 mm 4 m/S 742 mmHg 74%
16:00 +26°C° 1.4 mm 4 m/S 742 mmHg 80%
17:00 +25°C° 1.4 mm 4 m/S 742 mmHg 85%
18:00 +23°C° 0.1 mm 4 m/S 742 mmHg 88%
19:00 +24°C° 0.1 mm 3 m/S 742 mmHg 91%
20:00 +22°C° 0.1 mm 3 m/S 742 mmHg 93%
21:00 +21°C° 0.6 mm 3 m/S 742 mmHg 94%
22:00 +21°C° 0.6 mm 2 m/S 742 mmHg 95%
23:00 +20°C° 0.6 mm 2 m/S 742 mmHg 96%

28 Juni, Montag

Zeit Temperatur Niederschläge Wind Luftdruck Luftfeuchtigkeit
00:00 +20°C° 0.5 mm 3 m/S 742 mmHg 96%
01:00 +20°C° 0.5 mm 3 m/S 742 mmHg 96%
02:00 +20°C° 0.5 mm 4 m/S 742 mmHg 97%
03:00 +19°C° 0.4 mm 4 m/S 742 mmHg 96%
04:00 +19°C° 0.4 mm 4 m/S 742 mmHg 95%
05:00 +19°C° 0.4 mm 4 m/S 742 mmHg 94%
06:00 +19°C° 0.5 mm 3 m/S 742 mmHg 94%
07:00 +19°C° 0.5 mm 3 m/S 742 mmHg 93%
08:00 +20°C° 0.5 mm 3 m/S 743 mmHg 93%
09:00 +20°C° 1 mm 3 m/S 743 mmHg 94%
10:00 +20°C° 1 mm 3 m/S 743 mmHg 94%
11:00 +20°C° 1 mm 4 m/S 743 mmHg 95%
12:00 +21°C° 0.9 mm 3 m/S 743 mmHg 93%
13:00 +21°C° 0.9 mm 3 m/S 743 mmHg 91%
14:00 +22°C° 0.9 mm 3 m/S 743 mmHg 89%
15:00 +21°C° 1.1 mm 3 m/S 743 mmHg 92%
16:00 +20°C° 1.1 mm 3 m/S 743 mmHg 94%
17:00 +20°C° 1.1 mm 3 m/S 742 mmHg 96%
18:00 +20°C° 1.4 mm 4 m/S 742 mmHg 96%
19:00 +19°C° 1.4 mm 5 m/S 742 mmHg 96%
20:00 +19°C° 1.4 mm 5 m/S 743 mmHg 96%
21:00 +19°C° 0.4 mm 5 m/S 742 mmHg 96%
22:00 +19°C° 0.4 mm 5 m/S 742 mmHg 95%
23:00 +17°C° 0.4 mm 5 m/S 742 mmHg 95%

29 Juni, Dienstag

Zeit Temperatur Niederschläge Wind Luftdruck Luftfeuchtigkeit
00:00 +17°C° 1.3 mm 5 m/S 742 mmHg 95%
01:00 +17°C° 1.3 mm 6 m/S 742 mmHg 95%
02:00 +17°C° 1.3 mm 6 m/S 742 mmHg 95%
03:00 +17°C° 1.6 mm 5 m/S 742 mmHg 95%
04:00 +16°C° 1.6 mm 5 m/S 742 mmHg 96%
05:00 +16°C° 1.6 mm 5 m/S 742 mmHg 96%
06:00 +16°C° 0.9 mm 5 m/S 742 mmHg 95%
07:00 +17°C° 0.9 mm 5 m/S 742 mmHg 94%
08:00 +18°C° 0.9 mm 4 m/S 742 mmHg 92%
09:00 +19°C° 0.7 mm 5 m/S 742 mmHg 88%
10:00 +20°C° 0.7 mm 5 m/S 743 mmHg 84%
11:00 +21°C° 0.7 mm 6 m/S 743 mmHg 80%
12:00 +22°C° 0.5 mm 5 m/S 743 mmHg 77%
13:00 +22°C° 0.5 mm 5 m/S 743 mmHg 75%
14:00 +23°C° 0.5 mm 4 m/S 743 mmHg 72%
15:00 +22°C° 0.3 mm 4 m/S 743 mmHg 75%
16:00 +22°C° 0.3 mm 4 m/S 743 mmHg 77%
17:00 +22°C° 0.3 mm 4 m/S 743 mmHg 80%
18:00 +20°C° 0.2 mm 4 m/S 743 mmHg 83%
19:00 +19°C° 0.2 mm 3 m/S 743 mmHg 87%
20:00 +18°C° 0.2 mm 3 m/S 742 mmHg 91%
21:00 +18°C° 0.1 mm 3 m/S 742 mmHg 91%
22:00 +17°C° 0.1 mm 3 m/S 742 mmHg 92%
23:00 +17°C° 0.1 mm 3 m/S 742 mmHg 92%

30 Juni, Mittwoch

Zeit Temperatur Niederschläge Wind Luftdruck Luftfeuchtigkeit
00:00 +17°C° 0.2 mm 3 m/S 742 mmHg 93%
01:00 +17°C° 0.2 mm 3 m/S 742 mmHg 93%
02:00 +17°C° 0.2 mm 3 m/S 742 mmHg 94%
03:00 +17°C° 0.9 mm 3 m/S 741 mmHg 94%
04:00 +15°C° 0.9 mm 4 m/S 741 mmHg 95%
05:00 +15°C° 0.9 mm 4 m/S 741 mmHg 95%
06:00 +16°C° 0.8 mm 5 m/S 741 mmHg 94%
07:00 +16°C° 0.8 mm 5 m/S 741 mmHg 93%
08:00 +16°C° 0.8 mm 6 m/S 741 mmHg 92%
09:00 +17°C° 0.4 mm 5 m/S 741 mmHg 92%
10:00 +17°C° 0.4 mm 5 m/S 741 mmHg 91%
11:00 +19°C° 0.4 mm 5 m/S 741 mmHg 90%
12:00 +19°C° 0.3 mm 6 m/S 741 mmHg 88%
13:00 +20°C° 0.3 mm 6 m/S 741 mmHg 85%
14:00 +21°C° 0.3 mm 6 m/S 741 mmHg 82%
15:00 +21°C° 0.4 mm 6 m/S 741 mmHg 82%
16:00 +21°C° 0.4 mm 6 m/S 741 mmHg 82%
17:00 +21°C° 0.4 mm 6 m/S 741 mmHg 82%
18:00 +21°C° 0.2 mm 5 m/S 741 mmHg 85%
19:00 +20°C° 0.2 mm 4 m/S 741 mmHg 87%
20:00 +19°C° 0.2 mm 3 m/S 741 mmHg 90%
21:00 +19°C° 0 mm 3 m/S 741 mmHg 90%
22:00 +18°C° 0 mm 3 m/S 741 mmHg 91%
23:00 +18°C° 0 mm 3 m/S 741 mmHg 91%
Mehr zeigen

Wir brauchen deine Erlaubnis

Meteoprog und unser Service Anbieter werden persönliche Daten aufbewahren, so wie Cookies, Geräte Bezeichnung oder ähnliche Technologien von deinem Gerät und Prozess, so wie Persönliche Daten Inhalte und Werbungen, genauso wie social Media und den Verkehr zu analysieren.

  • Aufbewahrung und/oder Zugang zu deiner Geräte Informationen.

    Cookies, Geräte Bezeichnung oder andere Informationen, können aufbewahrt oder Zugang zu deinem Gerät erhalten, für den Grund, der oben angegeben wird.

  • Personalisierte Werbung und Inhalte, Messungen, Einblick in das Publikum und Produkt Entwicklung.

    Werbungen und Inhalte können personalisiert werden, basierend auf ein Profil. Mehr Daten können besser personalisierte Werbungen und Inhalte hinzufügen. Werbung und Inhalte können gezeigt und gemessen werden. Einblicke über das Publikum, welche die Werbung gesehen haben und den Inhalt, können abgeleitet werden. So wie Daten können genutzt werden, um es zu verbessern oder die Benutzer Erfahrung zu verbessern das System und die Software.

Wenn du “Ich stimme zu” klickst, erlaubst du uns, die Cookies zu benutzen die Geräte Bezeichnung, den Web oder ähnliche Technologien zu benutzen. Deine Settings, können in deinem Gerät bei deinem Browser geändert werden.

Für den bestimmten Zweck, berechtigten Interessen beruhen darauf, mehr als auf den Inhalt. Du kannst mehr darüber in unseren Privaten und Cookie Politik lesen.